Voltar ao catálogo

STARLINK-31050

AtivoComunicaçõesVLEO
NORAD 58546·PAYLOAD·🇺🇸 United States

Lançado Dec 8, 2023 de Vandenberg Space Force Base

Loading…

Próximas Passagens (próximas 24 horas)

TLE

AtualizadoSource: CelesTrak SupGP

Época: Sep 15, 2026, 02:40 UTC

1 58546C 23192R   26258.11159722 -.00018323  00000+0 -54134-3 0  2582
2 58546  53.1586 259.0635 0001328  89.0625 166.7734 15.34401135    14

Acompanhe STARLINK-31050 em tempo real com AllMySat

Download on the App Store